Temperature
18 18 17 17 17 16 16 15 15 15 14 14 14 14 13 13 13 13 13 12 12 12 12 11 11 11 11 10 10 10 9 9 9 9 9 9 9 9 9 9 9 9 9
17 17 17 17 17 17 16 16 16 15 15 15 15 15 14 14 13 13 13 12 12 12 12 11 11 11 10 10 10 10 10 9 9 9 9 9 9 9 9 9 9 9 9
17 17 17 17 17 17 17 16 16 16 16 15 15 14 13 12 12 12 13 13 12 12 12 12 11 11 11 10 10 10 10 10 9 9 9 9 9 9 9 9 9 9 9
17 17 17 17 17 18 18 17 17 17 16 15 15 14 14 14 14 14 14 13 12 12 12 12 11 11 11 10 10 10 10 10 9 9 9 9 9 9 8 9 9 9 8
17 17 18 18 18 18 18 18 17 17 16 16 15 15 15 15 15 14 13 13 12 12 12 11 11 11 11 11 10 10 10 10 9 9 9 9 8 8 8 8 9 9 8
17 17 18 18 18 18 18 18 17 17 17 16 15 15 15 15 14 14 13 13 12 12 12 11 11 11 11 11 10 10 10 10 9 9 9 9 9 9 8 8 8 8 8
17 17 18 18 18 18 18 18 17 17 17 16 16 16 15 15 15 15 14 13 13 12 12 12 11 11 11 11 10 10 10 9 9 9 9 9 8 8 8 8 8 8 7
16 17 17 18 18 18 18 18 17 17 17 16 16 16 15 15 14 14 14 14 14 14 13 12 12 11 11 11 10 10 10 9 9 9 9 9 8 8 8 8 7 7 7
16 17 17 18 18 18 18 18 17 17 17 17 16 16 15 15 15 14 14 13 13 13 12 12 12 11 11 10 10 10 9 9 9 9 8 8 8 8 8 7 7 6 6
16 16 17 17 18 18 18 18 17 17 17 17 16 16 16 15 15 14 14 13 13 12 12 12 11 11 11 10 10 10 9 9 9 9 8 8 8 8 7 7 7 6 5
15 16 17 17 17 18 18 17 17 17 17 17 16 16 15 15 14 14 13 13 12 12 12 11 11 11 10 10 10 10 9 9 9 8 8 8 8 7 7 7 6 6 5
15 16 16 17 17 17 17 17 17 16 16 16 16 16 15 15 14 14 13 13 12 12 11 11 11 11 10 10 10 9 9 9 9 8 8 8 8 7 7 6 6 5 5
14 15 15 16 16 16 16 16 16 16 16 16 15 15 15 14 14 13 13 12 12 11 11 11 11 10 10 10 10 9 9 9 8 8 8 8 7 7 6 6 6 5 4
12 14 14 15 15 15 16 16 16 16 15 15 15 14 14 14 14 13 12 12 12 11 11 11 10 10 10 10 9 9 9 8 8 8 8 7 7 6 6 5 5 5 4
11 12 13 14 14 14 15 15 15 15 15 15 14 14 14 14 13 12 12 11 11 11 11 10 10 10 10 9 9 9 8 8 8 8 7 7 6 6 5 5 5 4 3
10 11 12 12 13 14 14 14 14 14 14 14 14 14 13 13 12 12 12 11 11 11 10 10 10 10 9 9 9 8 8 8 7 7 7 7 6 6 5 5 4 3 3
9 10 11 12 13 13 14 14 14 14 14 14 13 13 13 12 12 12 11 11 11 10 10 10 10 9 9 9 8 8 8 7 7 7 7 6 6 5 4 4 3 3 2
8 9 10 11 12 12 13 13 13 13 13 13 13 13 12 12 11 11 11 11 11 10 10 10 10 9 9 9 8 8 7 7 7 6 6 6 5 4 4 3 3 2 1
8 9 10 11 11 12 12 12 12 12 12 12 12 12 12 12 11 11 11 11 10 10 10 9 9 9 9 8 8 7 7 7 6 6 5 5 4 4 3 3 2 2 1
8 9 10 10 11 11 11 12 12 12 12 12 12 12 12 11 11 11 11 10 10 10 9 9 9 9 8 8 7 7 7 7 6 5 5 4 4 3 3 2 2 1 0
7 8 9 10 10 11 11 11 11 11 11 11 11 11 11 11 11 11 10 10 10 9 9 9 8 8 8 7 7 7 7 6 6 5 4 4 3 2 2 1 1 0 -1
7 8 8 9 10 10 10 10 11 11 11 11 11 11 11 11 10 10 10 10 9 9 9 8 8 7 7 7 7 6 6 6 5 5 4 3 3 2 1 1 -0 -1 -1
6 7 8 8 9 9 10 10 10 10 10 11 11 11 10 10 10 10 10 9 9 9 8 8 8 7 7 6 6 6 5 5 4 4 3 3 2 1 1 0 -1 -1 -2
6 7 7 8 8 9 9 10 10 10 10 10 10 10 10 10 10 9 9 9 9 8 8 8 8 7 6 6 6 5 5 4 4 3 3 2 1 1 0 -1 -1 -2 -2
6 6 7 7 8 8 9 9 9 9 10 10 10 10 10 10 9 9 9 9 9 9 9 9 8 8 7 6 6 6 5 4 4 3 2 2 1 0 -0 -1 -2 -2 -3
5 6 6 7 7 8 8 9 9 9 9 9 9 9 9 9 9 9 8 8 8 8 8 8 8 7 7 6 6 5 4 4 3 3 2 1 1 -0 -1 -1 -2 -3 -3
Wind_Speed
18 17 19 19 19 20 21 22 21 20 18 16 15 15 14 13 12 11 15 18 18 18 14 9 9 8 7 7 7 4 4 2 3 2 2 3 2 2 2 3 3 4 6
14 15 17 19 21 23 24 24 23 23 22 18 16 13 11 9 10 9 12 18 18 18 15 11 10 9 7 7 7 5 4 2 3 3 2 2 4 3 2 2 3 3 4
18 17 18 19 21 24 25 24 25 24 23 18 12 9 7 6 7 11 12 14 18 18 15 13 11 10 9 9 8 7 7 5 3 3 4 3 4 3 3 3 3 3 3
17 17 18 20 21 24 25 25 26 25 23 20 18 18 15 14 14 12 11 11 15 16 16 14 13 11 9 9 9 8 5 6 4 3 2 3 3 3 2 3 3 3 4
16 17 19 21 21 23 23 23 24 24 23 22 22 21 16 13 8 8 11 12 12 14 15 15 13 11 9 10 9 8 7 6 5 4 3 2 1 2 3 4 4 3 4
15 16 17 18 18 19 20 21 23 24 24 24 23 23 20 15 13 13 14 13 10 11 13 14 13 12 10 10 10 9 9 7 6 5 4 4 3 4 3 4 4 4 4
13 13 15 17 17 19 20 21 23 23 24 25 24 24 22 20 19 17 16 14 11 11 15 13 13 11 10 10 9 9 9 8 7 7 5 4 4 3 3 3 3 3 3
14 14 15 17 18 20 21 22 23 23 24 25 24 22 21 17 15 15 14 15 13 13 13 13 12 12 11 10 9 8 8 7 7 7 6 4 4 3 3 3 3 2 2
14 15 14 15 17 20 21 22 23 22 23 24 23 21 20 18 16 15 13 12 11 10 11 13 12 11 11 11 10 8 8 7 7 7 6 5 4 3 3 3 3 3 3
12 13 13 14 15 18 19 20 22 23 21 22 21 18 20 19 17 15 15 14 12 11 12 13 12 11 11 11 10 8 8 8 7 5 6 5 3 3 3 3 2 3 4
10 11 11 12 13 13 16 17 18 17 18 20 19 18 18 17 16 16 16 15 13 13 14 13 13 12 12 11 10 9 9 9 7 6 6 6 4 3 3 2 2 2 3
7 8 8 9 10 12 13 15 16 17 17 18 17 18 17 16 16 16 15 14 14 14 13 13 12 12 12 11 12 11 10 10 9 8 7 6 4 4 3 3 3 2 2
4 4 6 8 10 11 12 13 14 15 15 15 16 16 16 16 17 16 14 14 14 13 13 13 13 12 12 11 11 11 10 9 9 8 8 6 6 5 3 3 3 2 1
2 2 5 7 8 9 10 11 12 12 13 14 15 16 17 17 16 15 14 14 14 14 13 13 12 12 11 11 10 10 9 8 7 7 6 6 6 6 5 4 3 2 2
4 2 3 4 6 7 8 9 10 11 12 14 14 14 14 14 14 14 14 13 13 13 13 12 11 11 10 10 11 10 9 9 7 6 5 5 6 6 5 4 3 3 2
5 4 3 3 5 7 8 9 10 11 12 13 13 12 12 13 14 14 14 13 13 12 12 12 12 11 9 13 16 13 10 9 9 7 6 5 5 6 6 5 5 5 3
6 5 5 5 6 7 8 10 10 10 11 12 12 13 13 14 14 14 14 14 14 13 12 12 12 11 12 17 17 16 11 9 8 8 7 5 4 6 4 5 5 4 4
6 6 5 5 4 5 6 8 9 10 11 12 12 13 14 13 14 15 15 14 12 13 12 12 12 11 12 18 18 17 10 8 8 7 7 7 6 6 7 5 4 3 3
6 6 5 4 4 6 7 9 9 10 11 12 13 14 14 14 14 15 15 13 12 11 11 11 12 12 12 17 19 16 9 8 7 6 6 7 6 8 9 7 5 4 3
7 6 4 2 4 5 7 9 10 11 11 12 12 13 14 15 15 15 14 12 12 12 11 10 10 12 12 16 19 17 9 9 7 6 5 8 8 9 10 6 5 4 2
7 5 2 2 3 5 9 10 10 11 10 9 10 12 13 13 14 13 12 13 12 13 11 11 9 9 12 16 18 17 10 10 9 6 4 4 9 9 9 7 5 5 5
7 5 3 1 2 5 8 10 10 9 9 10 11 12 12 12 13 14 13 14 14 14 12 11 9 6 8 12 15 17 14 13 9 7 5 6 10 10 9 6 6 7 6
6 5 3 1 1 3 6 9 8 9 10 11 11 12 12 12 13 15 15 14 13 12 11 10 10 8 6 9 16 17 17 15 8 7 11 11 12 10 7 7 8 6 3
6 5 3 2 2 2 4 6 8 10 12 12 11 11 13 13 13 12 12 13 13 12 12 11 11 9 8 8 8 9 10 13 10 8 11 13 12 8 7 6 4 3 2
6 4 4 4 4 3 4 5 8 11 12 12 11 11 12 13 12 10 9 11 10 13 15 13 12 13 11 12 16 13 10 9 10 10 6 5 5 4 3 3 3 2 2
6 5 5 4 4 4 5 5 8 12 13 11 11 10 11 11 11 11 8 8 9 13 13 14 14 10 13 20 20 18 18 18 18 11 7 6 5 5 4 3 2 2 1
Wind_Direction
216 205 200 194 189 187 185 184 183 181 179 181 182 184 188 188 188 189 186 185 184 181 178 176 173 171 173 172 163 150 149 153 138 98 9 335 327 266 239 221 215 224 225
221 210 202 195 192 190 189 188 187 184 185 188 189 187 180 182 185 184 187 188 185 183 184 177 178 176 171 169 169 155 151 165 156 139 116 325 325 311 275 244 229 235 235
219 212 205 199 194 193 191 191 190 188 188 185 176 161 153 157 179 191 193 193 188 186 185 181 178 178 177 181 181 171 164 174 193 169 153 167 230 282 303 268 249 241 240
219 214 206 201 197 196 193 193 191 190 189 183 181 179 184 191 196 191 190 188 189 188 187 183 181 181 182 183 185 181 171 164 183 200 197 179 167 180 283 303 285 262 249
217 212 207 202 200 196 193 193 191 191 189 187 187 188 193 196 180 173 179 187 191 190 189 186 185 185 187 187 185 181 180 177 178 180 174 175 170 172 188 260 289 294 264
219 215 210 201 201 196 192 191 191 192 189 189 190 192 193 187 175 181 187 190 191 192 192 189 189 189 189 190 188 186 184 187 182 183 177 172 179 195 187 223 251 269 280
217 212 209 200 198 194 192 190 190 192 191 191 193 195 195 191 189 189 191 190 190 195 196 192 191 191 190 187 181 184 190 188 188 193 197 196 200 177 176 193 233 253 279
222 215 208 202 197 194 192 190 191 192 191 193 195 196 194 194 197 193 192 195 198 198 191 191 192 190 186 184 182 187 191 189 195 199 198 201 209 187 180 181 183 247 283
223 218 209 202 198 194 193 192 192 193 192 193 194 194 194 194 195 192 191 194 194 189 185 188 189 187 185 184 182 192 192 188 196 200 200 205 207 194 194 179 171 180 243
227 218 209 202 199 195 192 191 193 193 192 192 194 195 194 195 192 188 192 193 190 184 184 188 188 186 185 184 185 188 188 189 196 194 196 204 200 186 180 179 177 178 196
233 218 208 202 195 189 189 189 190 190 191 192 192 191 192 191 188 190 192 191 188 186 187 188 188 187 187 185 187 190 183 189 193 189 190 198 185 177 182 171 169 180 177
239 215 203 190 185 185 185 187 189 188 189 189 188 189 188 186 187 190 189 185 186 187 186 183 185 187 187 187 188 188 184 188 191 188 184 193 176 176 174 167 177 184 182
256 209 193 185 184 186 186 186 186 187 185 182 184 185 184 184 187 187 183 181 181 180 180 180 184 186 185 185 187 185 183 186 186 183 183 183 169 181 178 173 182 182 163
290 209 193 186 185 185 186 184 183 182 179 178 180 184 185 184 184 181 178 178 177 177 179 180 182 182 180 180 178 175 173 172 170 168 170 170 173 183 179 178 181 161 145
315 254 206 190 183 181 180 180 179 177 176 176 179 182 180 175 173 172 174 173 173 174 173 172 173 172 173 175 169 167 164 161 155 151 153 157 158 162 165 163 163 151 147
308 287 249 208 191 188 183 176 176 175 173 175 177 171 167 169 170 170 168 167 167 166 165 169 169 170 173 167 165 161 158 157 156 153 146 142 143 150 149 144 140 141 147
299 280 249 221 210 195 184 179 174 168 169 172 169 167 166 168 168 165 164 166 165 160 162 163 164 166 165 161 160 156 154 154 156 154 150 141 141 134 125 120 106 97 100
300 290 265 234 215 192 174 164 159 163 166 166 166 166 165 164 163 163 165 163 159 160 159 159 158 155 158 156 153 149 143 140 144 147 149 147 144 144 135 121 105 86 69
291 288 272 231 195 177 165 157 159 161 164 169 170 168 165 162 162 164 163 156 153 152 151 154 152 151 154 154 151 144 137 135 134 136 140 143 145 145 137 127 122 99 60
322 311 297 220 179 175 162 161 164 167 174 175 171 165 162 162 163 161 155 149 148 146 143 144 149 150 153 155 152 144 140 138 135 129 134 142 143 143 140 138 137 133 115
320 328 306 220 196 176 167 169 171 179 174 163 160 158 159 158 155 149 147 145 141 139 139 137 139 145 151 154 154 150 149 149 144 142 141 144 143 139 137 130 134 134 127
326 327 323 287 200 172 172 175 179 171 155 153 155 156 154 151 149 146 144 144 143 141 140 136 133 133 142 150 155 153 149 147 145 148 146 142 139 133 130 124 120 116 108
314 313 302 280 219 179 177 181 176 156 153 154 156 155 151 150 150 150 148 148 148 148 150 148 147 143 139 148 151 150 146 144 136 139 143 138 133 127 122 119 118 112 105
303 308 297 254 232 202 189 183 167 158 157 158 158 156 154 152 151 151 153 156 157 155 155 155 153 148 146 147 146 142 139 137 129 126 132 130 124 114 115 114 106 99 118
289 287 275 247 228 203 189 174 165 159 158 159 158 158 156 152 152 150 156 159 165 166 163 164 161 160 163 167 158 150 146 144 138 129 116 112 118 117 111 103 99 95 91
273 275 272 251 225 200 190 179 171 163 161 161 161 161 156 152 149 142 125 114 131 142 145 151 153 156 154 153 154 151 149 146 145 134 137 140 142 147 149 143 130 114 112
Height
1427 1431 1436 1440 1445 1449 1453 1458 1462 1467 1472 1477 1481 1485 1488 1492 1497 1500 1504 1507 1510 1513 1516 1519 1521 1524 1526 1528 1530 1532 1534 1535 1536 1537 1538 1538 1537 1537 1537 1537 1537 1536 1536
1422 1425 1429 1434 1438 1442 1447 1452 1456 1461 1466 1470 1474 1479 1484 1489 1493 1497 1501 1504 1507 1510 1513 1515 1518 1521 1523 1525 1528 1529 1531 1533 1534 1535 1535 1535 1536 1535 1535 1534 1534 1534 1534
1414 1418 1422 1426 1430 1435 1439 1444 1449 1454 1460 1465 1471 1477 1483 1487 1490 1493 1495 1499 1503 1506 1509 1512 1515 1518 1520 1522 1524 1527 1528 1529 1531 1532 1533 1533 1532 1532 1532 1532 1532 1531 1531
1406 1410 1414 1418 1422 1427 1432 1437 1443 1448 1453 1459 1464 1469 1472 1476 1479 1484 1489 1494 1498 1502 1505 1509 1511 1514 1517 1519 1522 1524 1525 1527 1528 1529 1530 1531 1531 1530 1529 1530 1529 1529 1528
1398 1401 1405 1409 1414 1420 1425 1431 1436 1441 1447 1452 1457 1462 1466 1471 1476 1481 1486 1490 1494 1498 1501 1505 1508 1510 1513 1516 1518 1520 1522 1524 1525 1526 1527 1527 1528 1528 1527 1526 1526 1525 1525
1390 1394 1398 1403 1407 1413 1418 1423 1429 1434 1440 1445 1450 1455 1460 1465 1470 1475 1480 1484 1489 1493 1496 1500 1503 1506 1509 1511 1514 1517 1518 1520 1522 1523 1523 1524 1524 1524 1524 1523 1522 1521 1521
1383 1386 1390 1394 1399 1404 1410 1415 1421 1427 1433 1438 1443 1448 1454 1459 1464 1468 1474 1478 1482 1486 1490 1494 1497 1501 1504 1507 1510 1513 1515 1516 1518 1519 1520 1521 1521 1521 1521 1520 1519 1518 1517
1375 1378 1382 1386 1391 1397 1402 1407 1413 1419 1425 1431 1436 1442 1448 1453 1458 1464 1468 1472 1476 1480 1485 1489 1493 1496 1500 1503 1506 1509 1511 1513 1514 1515 1517 1517 1518 1518 1518 1517 1516 1514 1513
1367 1370 1374 1379 1384 1389 1394 1400 1406 1412 1417 1423 1430 1435 1441 1447 1452 1457 1463 1468 1472 1477 1481 1485 1488 1492 1495 1499 1502 1504 1506 1508 1510 1512 1513 1514 1514 1514 1514 1513 1513 1512 1509
1360 1362 1366 1371 1376 1382 1388 1394 1399 1405 1411 1417 1423 1428 1434 1440 1446 1452 1457 1462 1467 1472 1476 1480 1484 1487 1491 1494 1497 1500 1502 1504 1506 1508 1509 1509 1510 1510 1510 1509 1509 1508 1506
1353 1356 1359 1364 1369 1375 1381 1386 1392 1398 1405 1410 1416 1422 1428 1434 1440 1445 1451 1456 1461 1466 1471 1475 1479 1482 1486 1489 1492 1495 1497 1500 1502 1503 1504 1505 1506 1506 1506 1505 1504 1503 1502
1349 1351 1354 1359 1363 1368 1374 1380 1385 1392 1398 1404 1410 1416 1422 1428 1434 1439 1445 1451 1456 1461 1465 1470 1474 1478 1481 1484 1487 1490 1493 1495 1497 1499 1500 1501 1502 1502 1502 1501 1500 1499 1498
1346 1347 1350 1354 1358 1363 1368 1373 1379 1385 1392 1398 1404 1410 1416 1422 1428 1433 1439 1445 1451 1456 1460 1465 1469 1473 1476 1480 1483 1486 1488 1491 1493 1494 1496 1496 1497 1497 1497 1497 1496 1495 1494
1344 1344 1347 1350 1354 1358 1363 1368 1374 1380 1386 1392 1398 1404 1410 1416 1422 1428 1434 1440 1445 1450 1455 1460 1464 1469 1472 1476 1479 1482 1484 1486 1488 1490 1491 1492 1493 1493 1493 1493 1492 1491 1490
1344 1344 1345 1347 1350 1354 1359 1363 1369 1375 1381 1386 1392 1398 1404 1411 1417 1423 1429 1435 1441 1446 1451 1456 1460 1464 1468 1471 1474 1477 1480 1482 1484 1486 1487 1488 1489 1489 1489 1488 1488 1486 1485
1344 1344 1345 1346 1348 1351 1355 1360 1365 1370 1376 1382 1387 1393 1399 1406 1412 1418 1424 1431 1436 1442 1447 1451 1456 1460 1464 1467 1471 1474 1476 1478 1480 1482 1483 1484 1485 1485 1485 1484 1484 1483 1482
1345 1344 1344 1345 1346 1349 1352 1356 1361 1366 1372 1378 1383 1389 1395 1401 1407 1414 1420 1426 1431 1437 1442 1447 1452 1456 1460 1464 1467 1470 1472 1474 1476 1478 1479 1480 1481 1481 1481 1481 1480 1479 1478
1345 1343 1343 1343 1345 1347 1350 1354 1358 1363 1368 1374 1379 1385 1391 1397 1403 1409 1415 1421 1427 1432 1438 1443 1448 1452 1456 1460 1463 1466 1468 1471 1472 1474 1476 1477 1477 1478 1478 1477 1477 1476 1475
1343 1342 1341 1341 1342 1345 1348 1351 1356 1360 1365 1370 1375 1381 1387 1393 1399 1405 1411 1417 1423 1429 1434 1439 1444 1448 1452 1456 1459 1462 1465 1467 1469 1471 1472 1474 1474 1475 1474 1474 1474 1473 1472
1342 1340 1340 1340 1341 1343 1346 1349 1353 1357 1362 1366 1372 1377 1383 1389 1395 1401 1407 1414 1420 1426 1431 1436 1441 1445 1449 1453 1456 1459 1461 1463 1466 1468 1469 1470 1471 1471 1471 1471 1470 1470 1469
1342 1339 1338 1338 1340 1342 1345 1348 1351 1355 1359 1364 1370 1375 1381 1386 1392 1398 1405 1411 1417 1423 1428 1433 1438 1442 1446 1450 1453 1456 1458 1460 1462 1464 1466 1467 1468 1468 1468 1468 1468 1467 1466
1340 1338 1337 1337 1339 1341 1343 1346 1349 1353 1358 1363 1368 1373 1378 1384 1390 1396 1402 1408 1414 1419 1425 1430 1434 1439 1443 1446 1449 1452 1455 1458 1460 1462 1463 1464 1465 1465 1465 1465 1465 1464 1464
1339 1338 1337 1337 1338 1340 1342 1344 1347 1352 1356 1361 1366 1371 1376 1382 1387 1393 1398 1404 1410 1416 1421 1426 1430 1435 1439 1443 1446 1450 1452 1455 1457 1459 1460 1461 1462 1463 1463 1463 1462 1462 1461
1337 1336 1336 1336 1337 1338 1341 1343 1346 1350 1354 1358 1363 1368 1373 1379 1385 1390 1396 1401 1406 1411 1417 1421 1426 1431 1435 1439 1443 1446 1449 1452 1454 1456 1457 1459 1459 1460 1460 1460 1460 1460 1459
1335 1335 1334 1334 1335 1337 1338 1341 1344 1347 1351 1355 1360 1365 1370 1375 1381 1387 1392 1398 1404 1408 1413 1418 1423 1427 1431 1436 1440 1443 1446 1449 1451 1453 1455 1456 1457 1457 1458 1458 1458 1457 1457
1332 1332 1332 1332 1333 1334 1336 1339 1342 1345 1348 1352 1356 1361 1366 1372 1377 1383 1390 1397 1403 1408 1413 1418 1422 1427 1431 1435 1438 1442 1445 1447 1449 1451 1452 1453 1454 1455 1455 1455 1455 1455 1454